Regional Weather Roundup
Issued by NWS

Home | Current Version | Previous Version | Graphics & Text | Print | Product List | Glossary On
Versions: 1 2 3 4 5 6 7 8 9 10 11 12 13 14 15 16 17 18 19 20 21 22 23 24 25 26 27 28 29 30 31 32 33 34 35 36 37 38 39 40 41 42 43 44 45 46 47 48 49 50
488
ASUS44 KJAN 240903
RWRMS

MISSISSIPPI HOURLY WEATHER ROUNDUP
NATIONAL WEATHER SERVICE JACKSON MS
400 AM CDT THU JUL 24 2014

NOTE: "FAIR: INDICATES FEW OR NO CLOUDS BELOW 12,000 FEET WITH NO
SIGNIFICANT WEATHER AND/OR OBSTRUCTIONS TO VISIBILITY.

MSZ001>002-007>008-010>013-018>021-025>028-034>036-241000-
NORTHWEST MISSISSIPPI

CITY           SKY/WX    TMP DP  RH WIND       PRES   REMARKS
CLARKSDALE     FAIR      68  68 100 CALM      29.99F
CLEVELAND      FAIR      69  69 100 CALM      29.98S
GREENWOOD      MOCLDY    71  69  93 CALM      29.97F
GREENVILLE     CLEAR     72  69  90 NE8       29.97F
GRENADA        FAIR      68  68 100 CALM      29.98S
OLIVE BRANCH   CLEAR     68 N/A N/A N3        29.99S
OXFORD         FAIR      66  66 100 CALM      30.00S FOG
TUNICA         SUNNY     68  66  94 CALM      30.00S
$$

MSZ003>006-009-014>017-022>024-029>033-037>039-241000-
NORTHEAST MISSISSIPPI

CITY           SKY/WX    TMP DP  RH WIND       PRES   REMARKS
BELMONT        FAIR      68  67  98 CALM      29.97S
COLUMBUS AFB   PTCLDY    70  70 100 S2        29.97S
CORINTH        FAIR      68  66  94 NW5       29.98R FOG
GOLDN TRIANGLE CLOUDY    72  68  88 S3        29.97S VSB 1/4
STARKVILLE     FAIR      68  68 100 CALM      29.97R
TUPELO         CLEAR     71  68  90 N3        29.97R
$$

MSZ040-058-241000-
CENTRAL MISSISSIPPI

CITY           SKY/WX    TMP DP  RH WIND       PRES   REMARKS
JACKSON INTL   CLEAR     71  70  96 CALM      29.97S
JACKSON HAWKNS CLEAR     72  68  87 CALM      29.98S
MERIDIAN KEY   CLEAR     71  69  93 CALM      29.97F
MERIDIAN NAS   CLEAR     69  68  96 CALM      29.98S
RAYMOND        FAIR      72  66  83 CALM      29.97S
VICKSBURG      PTCLDY    73  71  93 CALM      29.96S
$$

MSZ059>079-241000-
SOUTH MISSISSIPPI

CITY           SKY/WX    TMP DP  RH WIND       PRES   REMARKS
BROOKHAVEN     FAIR      70  70 100 CALM      29.98F FOG
COLUMBIA       FAIR      70  70 100 CALM      29.96S FOG
HATTIESBURG    CLEAR     72  70  93 SE6       29.97F
MCCOMB         CLEAR     72  70  93 CALM      29.97S
NATCHEZ        CLEAR     70  68  94 NW3       29.98R
PINE BELT      CLEAR     72  68  88 CALM      29.99R
$$

MSZ080>082-241000-
COASTAL MISSISSIPPI

CITY           SKY/WX    TMP DP  RH WIND       PRES   REMARKS
BILOXI         PTCLDY    75  73  93 E1        29.95F
PASCAGOULA     CLEAR     71  70  96 CALM      29.97S
GULFPORT       CLEAR     77  72  84 CALM      29.95F
$$



USA.gov is the U.S. government's official web portal to all federal, state and local government web resources and services.